Zurück zum Katalog

BREEZE-M DEB

AktivHEO
NORAD 37205·DEBRIS·🇷🇺 Russia

Gestartet Mar 14, 2008 von Baikonur Cosmodrome

Loading…

Nächste Überflüge (nächste 24 Stunden)

TLE

AktuellSource: Space-Track

Epoche: Sep 13, 2026, 07:30 UTC

1 37205U 08011K   26256.31265402 -.00000117  00000-0  00000-0 0  9991
2 37205  49.3097  21.8123 6365404 210.8143  87.7463  3.05953192 24115

Verfolge BREEZE-M DEB in Echtzeit mit AllMySat

Download on the App Store